| time (UTC) | temp F | wind direction | speed knots | gust knots | rain 1hr in | rain 24hr in | rain mn in | humidity % | barometer mb |
| 20260510175319 | 65 | 29 | 0.9 | 3.5 | 0.00 | 0.00 | 0.00 | 47 | 1016.3 |
| 20260510174845 | 64 | 30 | 0.9 | 3.5 | 0.00 | 0.00 | 0.00 | 53 | 1016.3 |
| 20260510174329 | 64 | 40 | 0.0 | 3.5 | 0.00 | 0.00 | 0.00 | 51 | 1016.7 |
| 20260510173834 | 64 | 42 | 0.0 | 3.5 | 0.00 | 0.00 | 0.00 | 50 | 1016.7 |
| 20260510173317 | 64 | 45 | 0.9 | 3.5 | 0.00 | 0.00 | 0.00 | 47 | 1016.7 |
| 20260510172821 | 64 | 48 | 0.9 | 1.7 | 0.00 | 0.00 | 0.00 | 49 | 1016.6 |
| 20260510172347 | 64 | 48 | 0.9 | 1.7 | 0.00 | 0.00 | 0.00 | 50 | 1016.6 |
| 20260510171815 | 64 | 45 | 0.0 | 3.5 | 0.00 | 0.00 | 0.00 | 50 | 1016.6 |
| 20260510171344 | 64 | 49 | 0.9 | 3.5 | 0.00 | 0.00 | 0.00 | 47 | 1016.7 |
| 20260510170828 | 64 | 46 | 0.9 | 3.5 | 0.00 | 0.00 | 0.00 | 50 | 1016.7 |
| 20260510170314 | 63 | 51 | 0.9 | 3.5 | 0.00 | 0.00 | 0.00 | 48 | 1016.7 |
| 20260510165822 | 63 | 48 | 0.9 | 3.5 | 0.00 | 0.00 | 0.00 | 47 | 1016.7 |
| 20260510165327 | 64 | 51 | 0.9 | 3.5 | 0.00 | 0.00 | 0.00 | 47 | 1016.7 |
| 20260510164817 | 64 | 38 | 0.9 | 3.5 | 0.00 | 0.00 | 0.00 | 47 | 1016.7 |
| 20260510164318 | 63 | 31 | 0.0 | 2.6 | 0.00 | 0.00 | 0.00 | 45 | 1016.7 |
| 20260510163825 | 63 | 30 | 0.0 | 1.7 | 0.00 | 0.00 | 0.00 | 47 | 1016.7 |
| 20260510163331 | 63 | 32 | 0.9 | 1.7 | 0.00 | 0.00 | 0.00 | 46 | 1016.7 |
| 20260510162835 | 63 | 41 | 0.0 | 2.6 | 0.00 | 0.00 | 0.00 | 46 | 1016.7 |
| 20260510162324 | 63 | 41 | 0.9 | 2.6 | 0.00 | 0.00 | 0.00 | 47 | 1016.7 |
| 20260510161833 | 63 | 30 | 0.0 | 2.6 | 0.00 | 0.00 | 0.00 | 45 | 1016.7 |
| 20260510161337 | 62 | 30 | 0.9 | 2.6 | 0.00 | 0.00 | 0.00 | 48 | 1016.5 |
| 20260510160822 | 62 | 17 | 0.0 | 1.7 | 0.00 | 0.00 | 0.00 | 50 | 1016.5 |
| 20260510160331 | 62 | 17 | 0.0 | 4.3 | 0.00 | 0.00 | 0.00 | 55 | 1016.5 |
| 20260510155837 | 61 | 13 | 0.0 | 4.3 | 0.00 | 0.00 | 0.00 | 50 | 1016.4 |
| 20260510155321 | 61 | 25 | 0.0 | 1.7 | 0.00 | 0.00 | 0.00 | 58 | 1016.4 |
| 20260510154838 | 60 | 27 | 0.0 | 1.7 | 0.00 | 0.00 | 0.00 | 58 | 1016.4 |
| 20260510154356 | 60 | 27 | 0.0 | 1.7 | 0.00 | 0.00 | 0.00 | 57 | 1016.2 |
| 20260510153821 | 60 | 27 | 0.0 | 1.7 | 0.00 | 0.00 | 0.00 | 55 | 1016.2 |
| 20260510153329 | 60 | 30 | 0.0 | 1.7 | 0.00 | 0.00 | 0.00 | 58 | 1016.2 |
| 20260510152833 | 60 | 30 | 0.0 | 1.7 | 0.00 | 0.00 | 0.00 | 58 | 1016.1 |
| 20260510152321 | 60 | 30 | 0.0 | 1.7 | 0.00 | 0.00 | 0.00 | 60 | 1016.1 |
| 20260510151818 | 59 | 30 | 0.0 | 3.5 | 0.00 | 0.00 | 0.00 | 58 | 1016.1 |
| 20260510151324 | 59 | 30 | 0.9 | 3.5 | 0.00 | 0.00 | 0.00 | 59 | 1015.9 |
| 20260510150834 | 59 | 36 | 0.0 | 1.7 | 0.00 | 0.00 | 0.00 | 62 | 1015.9 |
| 20260510150340 | 58 | 36 | 0.0 | 1.7 | 0.00 | 0.00 | 0.00 | 59 | 1015.9 |
| 20260510145823 | 58 | 37 | 0.0 | 1.7 | 0.00 | 0.00 | 0.00 | 60 | 1015.6 |
| 20260510145327 | 58 | 34 | 0.0 | 2.6 | 0.00 | 0.00 | 0.00 | 62 | 1015.6 |
| 20260510144837 | 58 | 34 | 0.0 | 2.6 | 0.00 | 0.00 | 0.00 | 61 | 1015.6 |
| 20260510144323 | 57 | 34 | 0.9 | 2.6 | 0.00 | 0.00 | 0.00 | 60 | 1015.4 |
| 20260510143829 | 57 | 301 | 0.0 | 0.0 | 0.00 | 0.00 | 0.00 | 62 | 1015.4 |
| 20260510143335 | 57 | 350 | 0.0 | 0.0 | 0.00 | 0.00 | 0.00 | 62 | 1015.4 |
| 20260510142815 | 57 | 350 | 0.0 | 0.0 | 0.00 | 0.00 | 0.00 | 63 | 1015.2 |
| 20260510142327 | 57 | 349 | 0.0 | 1.7 | 0.00 | 0.00 | 0.00 | 62 | 1015.2 |
| 20260510141815 | 57 | 350 | 0.0 | 1.7 | 0.00 | 0.00 | 0.00 | 65 | 1015.2 |
| 20260510141318 | 56 | 349 | 0.0 | 0.0 | 0.00 | 0.00 | 0.00 | 62 | 1015.4 |
| 20260510140826 | 56 | 349 | 0.0 | 0.0 | 0.00 | 0.00 | 0.00 | 64 | 1015.4 |
| 20260510140330 | 56 | 349 | 0.0 | 0.0 | 0.00 | 0.00 | 0.00 | 65 | 1015.4 |
| 20260510135857 | 55 | 349 | 0.0 | 0.0 | 0.00 | 0.00 | 0.00 | 64 | 1015.1 |
| 20260510135320 | 55 | 349 | 0.0 | 0.9 | 0.00 | 0.00 | 0.00 | 65 | 1015.1 |
| 20260510134825 | 55 | 349 | 0.0 | 0.9 | 0.00 | 0.00 | 0.00 | 65 | 1015.1 |
| 20260510134327 | 55 | 349 | 0.0 | 1.7 | 0.00 | 0.00 | 0.00 | 65 | 1015.1 |
| 20260510133832 | 54 | 349 | 0.0 | 1.7 | 0.00 | 0.00 | 0.00 | 67 | 1015.1 |
| 20260510133316 | 54 | 349 | 0.0 | 0.0 | 0.00 | 0.00 | 0.00 | 67 | 1015.1 |
| 20260510132824 | 54 | 349 | 0.0 | 0.0 | 0.00 | 0.00 | 0.00 | 69 | 1015.0 |
| 20260510132349 | 54 | 349 | 0.0 | 0.0 | 0.00 | 0.00 | 0.00 | 67 | 1015.0 |
| 20260510131834 | 54 | 349 | 0.0 | 0.0 | 0.00 | 0.00 | 0.00 | 69 | 1015.0 |
| 20260510131318 | 53 | 349 | 0.0 | 0.0 | 0.00 | 0.00 | 0.00 | 69 | 1014.6 |
| 20260510130823 | 53 | 349 | 0.0 | 0.0 | 0.00 | 0.00 | 0.00 | 69 | 1014.6 |
| 20260510130328 | 53 | 349 | 0.0 | 0.0 | 0.00 | 0.00 | 0.00 | 69 | 1014.6 |
| 20260510125830 | 53 | 349 | 0.0 | 0.0 | 0.00 | 0.00 | 0.00 | 70 | 1014.4 |
| 20260510125313 | 53 | 349 | 0.0 | 0.0 | 0.00 | 0.00 | 0.00 | 72 | 1014.4 |
| 20260510124824 | 53 | 349 | 0.0 | 0.0 | 0.00 | 0.00 | 0.00 | 72 | 1014.4 |
| 20260510124327 | 53 | 349 | 0.0 | 0.0 | 0.00 | 0.00 | 0.00 | 72 | 1014.4 |
| 20260510123856 | 53 | 349 | 0.0 | 0.0 | 0.00 | 0.00 | 0.00 | 72 | 1014.4 |
| 20260510123340 | 53 | 349 | 0.0 | 0.0 | 0.00 | 0.00 | 0.00 | 70 | 1014.4 |
| 20260510122824 | 53 | 349 | 0.0 | 0.0 | 0.00 | 0.00 | 0.00 | 70 | 1014.3 |
| 20260510122333 | 53 | 349 | 0.0 | 0.0 | 0.00 | 0.00 | 0.00 | 71 | 1014.3 |
| 20260510121822 | 53 | 349 | 0.0 | 1.7 | 0.00 | 0.00 | 0.00 | 71 | 1014.3 |
| 20260510121324 | 53 | 349 | 0.0 | 1.7 | 0.00 | 0.00 | 0.00 | 71 | 1014.1 |
| 20260510120829 | 53 | 349 | 0.0 | 0.0 | 0.00 | 0.00 | 0.00 | 71 | 1014.1 |
| 20260510120335 | 53 | 349 | 0.0 | 0.0 | 0.00 | 0.00 | 0.00 | 72 | 1014.1 |
| 20260510115836 | 53 | 349 | 0.0 | 0.0 | 0.00 | 0.00 | 0.00 | 73 | 1014.0 |
| 20260510115348 | 53 | 349 | 0.0 | 0.0 | 0.00 | 0.00 | 0.00 | 74 | 1014.0 |
| 20260510114832 | 53 | 349 | 0.0 | 0.0 | 0.00 | 0.00 | 0.00 | 74 | 1014.0 |
| 20260510114336 | 53 | 349 | 0.0 | 0.0 | 0.00 | 0.00 | 0.00 | 74 | 1013.4 |
| 20260510113820 | 53 | 349 | 0.0 | 0.0 | 0.00 | 0.00 | 0.00 | 75 | 1013.4 |
| 20260510113325 | 53 | 349 | 0.0 | 0.0 | 0.00 | 0.00 | 0.00 | 76 | 1013.4 |
| 20260510112829 | 53 | 349 | 0.0 | 0.0 | 0.00 | 0.00 | 0.00 | 75 | 1013.1 |
| 20260510112320 | 53 | 349 | 0.0 | 0.0 | 0.00 | 0.00 | 0.00 | 75 | 1013.1 |
| 20260510111845 | 53 | 349 | 0.0 | 0.0 | 0.00 | 0.00 | 0.00 | 75 | 1013.1 |
| 20260510111330 | 53 | 349 | 0.0 | 0.0 | 0.00 | 0.00 | 0.00 | 75 | 1013.0 |
| 20260510110819 | 53 | 349 | 0.0 | 0.0 | 0.00 | 0.00 | 0.00 | 75 | 1013.0 |
| 20260510110342 | 53 | 349 | 0.0 | 0.0 | 0.00 | 0.00 | 0.00 | 77 | 1013.0 |
| 20260510105824 | 54 | 349 | 0.0 | 0.0 | 0.00 | 0.00 | 0.00 | 78 | 1012.7 |
| 20260510105329 | 54 | 349 | 0.0 | 0.0 | 0.00 | 0.00 | 0.00 | 79 | 1012.7 |
| 20260510104815 | 54 | 349 | 0.0 | 0.0 | 0.00 | 0.00 | 0.00 | 79 | 1012.7 |
| 20260510104331 | 54 | 349 | 0.0 | 0.0 | 0.00 | 0.00 | 0.00 | 80 | 1012.4 |
| 20260510103856 | 54 | 349 | 0.0 | 0.0 | 0.00 | 0.00 | 0.00 | 80 | 1012.4 |
| 20260510103318 | 54 | 340 | 0.0 | 0.0 | 0.00 | 0.00 | 0.00 | 80 | 1012.4 |
| 20260510102820 | 54 | 340 | 0.0 | 0.0 | 0.00 | 0.00 | 0.00 | 80 | 1012.0 |
| 20260510102326 | 55 | 340 | 0.0 | 0.0 | 0.00 | 0.00 | 0.00 | 81 | 1012.0 |
| 20260510101852 | 55 | 340 | 0.0 | 0.0 | 0.00 | 0.00 | 0.00 | 82 | 1012.0 |
| 20260510101335 | 55 | 340 | 0.0 | 0.0 | 0.00 | 0.00 | 0.00 | 82 | 1011.9 |
| 20260510100825 | 55 | 340 | 0.0 | 0.0 | 0.00 | 0.00 | 0.00 | 82 | 1011.9 |
| 20260510100330 | 55 | 340 | 0.0 | 0.0 | 0.00 | 0.00 | 0.00 | 82 | 1011.9 |
| 20260510095832 | 55 | 340 | 0.0 | 0.0 | 0.00 | 0.00 | 0.00 | 82 | 1011.4 |
| 20260510095337 | 56 | 340 | 0.0 | 0.0 | 0.00 | 0.00 | 0.00 | 82 | 1011.4 |
| 20260510094842 | 56 | 340 | 0.0 | 0.9 | 0.00 | 0.00 | 0.00 | 82 | 1011.4 |
| 20260510094328 | 56 | 340 | 0.0 | 0.9 | 0.00 | 0.00 | 0.00 | 82 | 1011.3 |
| 20260510093854 | 56 | 340 | 0.0 | 0.0 | 0.00 | 0.00 | 0.00 | 82 | 1011.3 |
| 20260510093321 | 56 | 340 | 0.0 | 0.0 | 0.00 | 0.00 | 0.00 | 82 | 1011.3 |
| 20260510092827 | 56 | 340 | 0.0 | 0.0 | 0.00 | 0.00 | 0.00 | 81 | 1010.8 |
| 20260510092317 | 56 | 340 | 0.0 | 0.0 | 0.00 | 0.00 | 0.00 | 82 | 1010.8 |
| 20260510091826 | 56 | 340 | 0.0 | 0.0 | 0.00 | 0.00 | 0.00 | 81 | 1010.8 |
| 20260510091330 | 56 | 340 | 0.0 | 0.0 | 0.00 | 0.00 | 0.00 | 82 | 1010.7 |
| 20260510090839 | 57 | 340 | 0.0 | 0.0 | 0.00 | 0.00 | 0.00 | 82 | 1010.7 |
| 20260510090323 | 57 | 340 | 0.0 | 0.0 | 0.00 | 0.00 | 0.00 | 82 | 1010.7 |
| 20260510085826 | 57 | 340 | 0.0 | 0.0 | 0.00 | 0.00 | 0.00 | 82 | 1010.2 |
| 20260510085333 | 57 | 340 | 0.0 | 0.0 | 0.00 | 0.00 | 0.00 | 82 | 1010.2 |
| 20260510084822 | 57 | 340 | 0.0 | 0.0 | 0.00 | 0.00 | 0.00 | 82 | 1010.2 |
| 20260510084325 | 57 | 339 | 0.0 | 0.0 | 0.00 | 0.00 | 0.00 | 82 | 1009.9 |
| 20260510083832 | 57 | 339 | 0.0 | 0.0 | 0.00 | 0.00 | 0.00 | 81 | 1009.9 |
| 20260510083314 | 57 | 339 | 0.0 | 0.0 | 0.00 | 0.00 | 0.00 | 80 | 1009.9 |
| 20260510082837 | 58 | 339 | 0.0 | 0.9 | 0.00 | 0.00 | 0.00 | 79 | 1009.8 |
| 20260510082339 | 58 | 338 | 0.0 | 3.5 | 0.00 | 0.00 | 0.00 | 79 | 1009.8 |
| 20260510081823 | 58 | 51 | 0.0 | 3.5 | 0.00 | 0.00 | 0.00 | 78 | 1009.8 |
| 20260510081325 | 58 | 112 | 0.0 | 0.0 | 0.00 | 0.00 | 0.00 | 78 | 1009.7 |
| 20260510080834 | 58 | 112 | 0.0 | 0.0 | 0.00 | 0.00 | 0.00 | 78 | 1009.7 |
| 20260510080322 | 58 | 112 | 0.0 | 0.0 | 0.00 | 0.00 | 0.00 | 78 | 1009.7 |
| 20260510075824 | 58 | 112 | 0.0 | 0.0 | 0.00 | 0.00 | 0.00 | 78 | 1010.0 |
| 20260510075336 | 58 | 112 | 0.0 | 0.0 | 0.00 | 0.00 | 0.00 | 79 | 1010.0 |
| 20260510074821 | 58 | 112 | 0.0 | 0.0 | 0.00 | 0.00 | 0.00 | 78 | 1010.0 |
| 20260510074327 | 58 | 112 | 0.0 | 0.0 | 0.00 | 0.00 | 0.00 | 80 | 1009.7 |
| 20260510073830 | 58 | 112 | 0.0 | 0.0 | 0.00 | 0.00 | 0.00 | 80 | 1009.7 |
| 20260510073317 | 58 | 112 | 0.0 | 0.0 | 0.00 | 0.00 | 0.00 | 77 | 1009.7 |
| 20260510072817 | 59 | 112 | 0.0 | 0.9 | 0.00 | 0.00 | 0.00 | 76 | 1009.8 |
| 20260510072323 | 59 | 112 | 0.0 | 0.9 | 0.00 | 0.00 | 0.00 | 77 | 1009.8 |
| 20260510071834 | 59 | 112 | 0.0 | 0.0 | 0.00 | 0.00 | 0.00 | 76 | 1009.8 |
| 20260510071336 | 59 | 112 | 0.0 | 0.0 | 0.00 | 0.00 | 0.00 | 76 | 1009.7 |
| 20260510070820 | 60 | 112 | 0.0 | 0.0 | 0.00 | 0.00 | 0.00 | 75 | 1009.7 |
| 20260510070346 | 60 | 112 | 0.0 | 0.0 | 0.00 | 0.00 | 0.00 | 75 | 1009.7 |
| 20260510065827 | 61 | 112 | 0.0 | 0.0 | 0.00 | 0.01 | 0.00 | 72 | 1009.7 |
| 20260510065331 | 61 | 112 | 0.0 | 0.0 | 0.00 | 0.01 | 0.00 | 71 | 1009.7 |
| 20260510064815 | 61 | 112 | 0.0 | 0.0 | 0.00 | 0.01 | 0.00 | 71 | 1009.7 |
| 20260510064319 | 61 | 112 | 0.0 | 2.6 | 0.00 | 0.01 | 0.00 | 71 | 1009.9 |
| 20260510063822 | 61 | 160 | 0.0 | 3.5 | 0.00 | 0.01 | 0.00 | 72 | 1009.9 |
| 20260510063349 | 61 | 107 | 0.9 | 3.5 | 0.00 | 0.01 | 0.00 | 72 | 1009.9 |
| 20260510062831 | 61 | 111 | 0.0 | 4.3 | 0.00 | 0.01 | 0.00 | 74 | 1010.2 |
| 20260510062356 | 61 | 152 | 0.9 | 5.2 | 0.00 | 0.01 | 0.00 | 75 | 1010.2 |
| 20260510061822 | 61 | 107 | 0.9 | 5.2 | 0.00 | 0.01 | 0.00 | 75 | 1010.2 |
| 20260510061324 | 61 | 164 | 0.0 | 4.3 | 0.00 | 0.01 | 0.00 | 75 | 1010.2 |
| 20260510060832 | 61 | 136 | 0.9 | 3.5 | 0.00 | 0.01 | 0.00 | 76 | 1010.2 |
| 20260510060318 | 61 | 97 | 0.9 | 3.5 | 0.00 | 0.01 | 0.00 | 76 | 1010.2 |
| 20260510055823 | 61 | 130 | 0.9 | 3.5 | 0.00 | 0.02 | 0.00 | 77 | 1009.8 |
| 20260510055349 | 61 | 158 | 0.0 | 2.6 | 0.00 | 0.02 | 0.00 | 76 | 1009.8 |
| 20260510054853 | 61 | 158 | 0.0 | 2.6 | 0.00 | 0.02 | 0.00 | 76 | 1009.8 |
| 20260510054317 | 61 | 134 | 0.0 | 3.5 | 0.00 | 0.02 | 0.00 | 75 | 1009.8 |
| 20260510053823 | 62 | 184 | 0.0 | 3.5 | 0.00 | 0.02 | 0.00 | 75 | 1009.8 |
| 20260510053327 | 62 | 132 | 0.0 | 3.5 | 0.00 | 0.02 | 0.00 | 75 | 1009.8 |
| 20260510052833 | 62 | 158 | 0.0 | 4.3 | 0.00 | 0.02 | 0.00 | 75 | 1009.6 |
| 20260510052317 | 62 | 150 | 0.0 | 4.3 | 0.00 | 0.02 | 0.00 | 74 | 1009.6 |
| 20260510051843 | 62 | 144 | 0.0 | 5.2 | 0.00 | 0.02 | 0.00 | 74 | 1009.6 |
| 20260510051323 | 61 | 148 | 0.9 | 5.2 | 0.00 | 0.02 | 0.00 | 75 | 1009.7 |
| 20260510050830 | 61 | 164 | 0.0 | 3.5 | 0.00 | 0.02 | 0.00 | 75 | 1009.7 |
| 20260510050319 | 61 | 126 | 0.0 | 3.5 | 0.00 | 0.02 | 0.00 | 75 | 1009.7 |
| 20260510045824 | 61 | 98 | 0.0 | 5.2 | 0.00 | 0.02 | 0.00 | 75 | 1009.5 |
| 20260510045329 | 61 | 153 | 0.9 | 5.2 | 0.00 | 0.02 | 0.00 | 75 | 1009.5 |
| 20260510044833 | 61 | 146 | 0.9 | 4.3 | 0.00 | 0.02 | 0.00 | 74 | 1009.5 |
| 20260510044335 | 61 | 144 | 0.9 | 4.3 | 0.00 | 0.02 | 0.00 | 75 | 1009.5 |
| 20260510043820 | 61 | 139 | 0.0 | 2.6 | 0.00 | 0.02 | 0.00 | 75 | 1009.5 |
| 20260510043326 | 60 | 134 | 0.9 | 2.6 | 0.00 | 0.02 | 0.00 | 75 | 1009.5 |
| 20260510042831 | 60 | 317 | 0.0 | 2.6 | 0.00 | 0.02 | 0.00 | 75 | 1009.2 |
| 20260510042336 | 60 | 198 | 0.0 | 0.0 | 0.00 | 0.02 | 0.00 | 76 | 1009.2 |
| 20260510041821 | 60 | 198 | 0.0 | 0.0 | 0.00 | 0.02 | 0.00 | 75 | 1009.2 |
| 20260510041331 | 60 | 198 | 0.0 | 1.7 | 0.00 | 0.02 | 0.00 | 76 | 1009.2 |
| 20260510040835 | 60 | 198 | 0.0 | 1.7 | 0.00 | 0.02 | 0.00 | 75 | 1009.2 |
| 20260510040320 | 59 | 123 | 0.0 | 0.0 | 0.00 | 0.02 | 0.00 | 78 | 1009.2 |
| 20260510035824 | 59 | 123 | 0.0 | 0.0 | 0.00 | 0.02 | 0.02 | 77 | 1009.2 |
| 20260510035331 | 59 | 123 | 0.0 | 0.0 | 0.00 | 0.02 | 0.02 | 79 | 1009.2 |
| 20260510034839 | 59 | 123 | 0.0 | 0.0 | 0.00 | 0.02 | 0.02 | 81 | 1009.2 |
| 20260510034320 | 60 | 123 | 0.0 | 0.0 | 0.00 | 0.02 | 0.02 | 80 | 1009.0 |
| 20260510033844 | 60 | 123 | 0.0 | 0.0 | 0.00 | 0.02 | 0.02 | 79 | 1009.0 |
| 20260510033329 | 60 | 123 | 0.0 | 0.0 | 0.00 | 0.02 | 0.02 | 77 | 1009.0 |
| 20260510032831 | 60 | 123 | 0.0 | 0.0 | 0.00 | 0.02 | 0.02 | 77 | 1008.9 |
| 20260510032336 | 60 | 123 | 0.0 | 0.9 | 0.00 | 0.02 | 0.02 | 75 | 1008.9 |
| 20260510031840 | 60 | 123 | 0.0 | 0.9 | 0.00 | 0.02 | 0.02 | 75 | 1008.9 |
| 20260510031322 | 61 | 123 | 0.0 | 0.0 | 0.00 | 0.02 | 0.02 | 76 | 1008.8 |
| 20260510030829 | 61 | 123 | 0.0 | 0.0 | 0.00 | 0.02 | 0.02 | 77 | 1008.8 |
| 20260510030338 | 61 | 123 | 0.0 | 0.0 | 0.00 | 0.02 | 0.02 | 75 | 1008.8 |
| 20260510025821 | 61 | 123 | 0.0 | 0.0 | 0.00 | 0.02 | 0.02 | 77 | 1008.8 |
| 20260510025346 | 61 | 123 | 0.0 | 0.0 | 0.00 | 0.02 | 0.02 | 75 | 1008.8 |
| 20260510024831 | 61 | 123 | 0.0 | 0.0 | 0.00 | 0.02 | 0.02 | 76 | 1008.8 |
| 20260510024336 | 61 | 123 | 0.0 | 0.0 | 0.00 | 0.02 | 0.02 | 75 | 1008.7 |
| 20260510023820 | 61 | 146 | 0.0 | 2.6 | 0.00 | 0.02 | 0.02 | 75 | 1008.7 |
| 20260510023326 | 60 | 146 | 0.0 | 2.6 | 0.00 | 0.02 | 0.02 | 74 | 1008.7 |
| 20260510022832 | 60 | 100 | 0.0 | 0.0 | 0.00 | 0.02 | 0.02 | 76 | 1008.6 |
| 20260510022337 | 60 | 100 | 0.0 | 0.0 | 0.00 | 0.02 | 0.02 | 75 | 1008.6 |
| 20260510021823 | 60 | 100 | 0.0 | 0.0 | 0.00 | 0.02 | 0.02 | 75 | 1008.6 |
| 20260510021326 | 61 | 100 | 0.0 | 0.0 | 0.00 | 0.02 | 0.02 | 74 | 1008.4 |
| 20260510020815 | 61 | 100 | 0.0 | 0.0 | 0.00 | 0.02 | 0.02 | 72 | 1008.4 |
| 20260510020327 | 62 | 100 | 0.0 | 0.0 | 0.00 | 0.02 | 0.02 | 72 | 1008.4 |
| 20260510015828 | 62 | 100 | 0.0 | 0.0 | 0.00 | 0.02 | 0.02 | 72 | 1008.1 |
| 20260510015336 | 62 | 99 | 0.0 | 0.0 | 0.00 | 0.02 | 0.02 | 70 | 1008.1 |
| 20260510014819 | 63 | 113 | 0.0 | 0.0 | 0.00 | 0.02 | 0.02 | 69 | 1008.1 |
| 20260510014323 | 63 | 113 | 0.0 | 0.9 | 0.00 | 0.02 | 0.02 | 69 | 1008.1 |
| 20260510013828 | 63 | 113 | 0.0 | 0.9 | 0.00 | 0.02 | 0.02 | 68 | 1008.1 |
| 20260510013334 | 63 | 167 | 0.0 | 0.9 | 0.00 | 0.02 | 0.02 | 68 | 1008.1 |
| 20260510012838 | 64 | 167 | 0.0 | 0.0 | 0.00 | 0.02 | 0.02 | 67 | 1007.6 |
| 20260510012324 | 64 | 167 | 0.0 | 0.0 | 0.00 | 0.02 | 0.02 | 66 | 1007.6 |
| 20260510011830 | 64 | 148 | 0.0 | 0.0 | 0.00 | 0.02 | 0.02 | 65 | 1007.6 |
| 20260510011320 | 64 | 148 | 0.0 | 0.0 | 0.00 | 0.02 | 0.02 | 65 | 1007.7 |
| 20260510010825 | 64 | 148 | 0.0 | 0.9 | 0.00 | 0.02 | 0.02 | 65 | 1007.7 |
| 20260510010331 | 64 | 148 | 0.0 | 0.9 | 0.00 | 0.02 | 0.02 | 65 | 1007.7 |
| 20260510005833 | 65 | 148 | 0.0 | 0.9 | 0.00 | 0.02 | 0.02 | 66 | 1007.6 |
| 20260510005338 | 65 | 148 | 0.0 | 0.0 | 0.00 | 0.02 | 0.02 | 63 | 1007.6 |
| 20260510004824 | 66 | 148 | 0.0 | 1.7 | 0.00 | 0.02 | 0.02 | 62 | 1007.6 |
| 20260510004330 | 66 | 204 | 0.0 | 1.7 | 0.00 | 0.02 | 0.02 | 61 | 1007.5 |
| 20260510003838 | 66 | 360 | 0.0 | 1.7 | 0.00 | 0.02 | 0.02 | 61 | 1007.5 |
| 20260510003320 | 66 | 360 | 0.0 | 4.3 | 0.00 | 0.02 | 0.02 | 60 | 1007.5 |
| 20260510002821 | 67 | 169 | 0.0 | 4.3 | 0.00 | 0.02 | 0.02 | 59 | 1007.1 |
| 20260510002327 | 67 | 170 | 0.9 | 4.3 | 0.00 | 0.02 | 0.02 | 58 | 1007.1 |
| 20260510001836 | 67 | 149 | 0.0 | 0.9 | 0.00 | 0.02 | 0.02 | 58 | 1007.1 |
| 20260510001322 | 67 | 148 | 0.0 | 1.7 | 0.00 | 0.02 | 0.02 | 57 | 1007.0 |
| 20260510000828 | 68 | 149 | 0.0 | 2.6 | 0.00 | 0.02 | 0.02 | 56 | 1007.0 |
| 20260510000335 | 68 | 124 | 0.9 | 2.6 | 0.00 | 0.02 | 0.02 | 56 | 1007.0 |
| 20260509235838 | 68 | 198 | 0.9 | 3.5 | 0.00 | 0.02 | 0.02 | 56 | 1007.0 |
| 20260509235343 | 68 | 148 | 0.9 | 5.2 | 0.00 | 0.02 | 0.02 | 56 | 1007.0 |
| 20260509234828 | 68 | 157 | 1.7 | 5.2 | 0.00 | 0.02 | 0.02 | 57 | 1007.0 |
| 20260509234330 | 68 | 133 | 0.9 | 3.5 | 0.00 | 0.02 | 0.02 | 58 | 1006.9 |
| 20260509233839 | 68 | 115 | 0.9 | 4.3 | 0.00 | 0.02 | 0.02 | 58 | 1006.9 |
| 20260509233323 | 68 | 101 | 0.9 | 6.1 | 0.00 | 0.02 | 0.02 | 57 | 1006.9 |
| 20260509232826 | 68 | 161 | 0.9 | 6.1 | 0.00 | 0.02 | 0.02 | 57 | 1006.6 |
| 20260509232335 | 69 | 254 | 0.0 | 5.2 | 0.00 | 0.02 | 0.02 | 57 | 1006.6 |
| 20260509231823 | 69 | 240 | 1.7 | 7.0 | 0.00 | 0.02 | 0.02 | 56 | 1006.6 |
| 20260509231326 | 69 | 161 | 0.9 | 7.0 | 0.00 | 0.02 | 0.02 | 56 | 1006.6 |
| 20260509230831 | 69 | 142 | 2.6 | 7.8 | 0.00 | 0.02 | 0.02 | 56 | 1006.6 |
| 20260509230317 | 69 | 290 | 1.7 | 7.8 | 0.00 | 0.02 | 0.02 | 55 | 1006.6 |
| 20260509225843 | 69 | 147 | 1.7 | 9.6 | 0.00 | 0.02 | 0.02 | 55 | 1006.5 |
| 20260509225330 | 69 | 153 | 0.9 | 9.6 | 0.00 | 0.02 | 0.02 | 54 | 1006.5 |
| 20260509224819 | 69 | 240 | 1.7 | 5.2 | 0.00 | 0.02 | 0.02 | 54 | 1006.5 |
| 20260509224343 | 69 | 54 | 0.9 | 4.3 | 0.00 | 0.02 | 0.02 | 57 | 1006.5 |
| 20260509223830 | 69 | 169 | 0.9 | 7.8 | 0.00 | 0.02 | 0.02 | 55 | 1006.5 |
| 20260509223319 | 69 | 197 | 0.9 | 7.8 | 0.00 | 0.02 | 0.02 | 55 | 1006.5 |
| 20260509222822 | 70 | 280 | 2.6 | 7.8 | 0.00 | 0.02 | 0.02 | 55 | 1006.6 |
| 20260509222334 | 70 | 185 | 1.7 | 7.8 | 0.00 | 0.02 | 0.02 | 55 | 1006.6 |
| 20260509221842 | 70 | 261 | 2.6 | 6.1 | 0.00 | 0.02 | 0.02 | 55 | 1006.6 |
| 20260509221327 | 70 | 167 | 0.9 | 6.1 | 0.00 | 0.02 | 0.02 | 55 | 1006.7 |
| 20260509220832 | 70 | 177 | 1.7 | 9.6 | 0.00 | 0.02 | 0.02 | 56 | 1006.7 |
| 20260509220321 | 70 | 188 | 2.6 | 9.6 | 0.00 | 0.02 | 0.02 | 54 | 1006.7 |
| 20260509215824 | 70 | 55 | 1.7 | 7.8 | 0.00 | 0.02 | 0.02 | 55 | 1006.8 |
| 20260509215329 | 70 | 237 | 0.9 | 6.1 | 0.00 | 0.02 | 0.02 | 58 | 1006.8 |
| 20260509214813 | 71 | 205 | 2.6 | 9.6 | 0.00 | 0.02 | 0.02 | 55 | 1006.8 |
| 20260509214339 | 71 | 192 | 1.7 | 9.6 | 0.00 | 0.02 | 0.02 | 54 | 1006.9 |
| 20260509213824 | 71 | 134 | 0.9 | 5.2 | 0.00 | 0.02 | 0.02 | 55 | 1006.9 |
| 20260509213317 | 71 | 254 | 0.0 | 7.8 | 0.00 | 0.02 | 0.02 | 57 | 1006.9 |
| 20260509212824 | 70 | 157 | 2.6 | 7.8 | 0.00 | 0.02 | 0.02 | 58 | 1006.9 |
| 20260509212329 | 71 | 127 | 2.6 | 9.6 | 0.00 | 0.02 | 0.02 | 54 | 1006.9 |
| 20260509211838 | 71 | 202 | 0.9 | 9.6 | 0.00 | 0.02 | 0.02 | 55 | 1006.9 |
| 20260509211319 | 70 | 290 | 2.6 | 10.4 | 0.00 | 0.02 | 0.02 | 54 | 1007.0 |
| 20260509210827 | 70 | 155 | 1.7 | 10.4 | 0.00 | 0.02 | 0.02 | 56 | 1007.0 |
| 20260509210316 | 70 | 238 | 0.9 | 8.7 | 0.00 | 0.02 | 0.02 | 58 | 1007.0 |
| 20260509205822 | 70 | 156 | 2.6 | 8.7 | 0.00 | 0.02 | 0.02 | 58 | 1007.1 |
| 20260509205328 | 70 | 135 | 0.9 | 6.1 | 0.00 | 0.02 | 0.02 | 56 | 1007.1 |
| 20260509204833 | 70 | 159 | 1.7 | 7.0 | 0.00 | 0.02 | 0.02 | 56 | 1007.1 |
| 20260509204315 | 70 | 78 | 2.6 | 7.0 | 0.00 | 0.02 | 0.02 | 60 | 1007.1 |
| 20260509203831 | 70 | 140 | 2.6 | 8.7 | 0.00 | 0.02 | 0.02 | 56 | 1007.1 |
| 20260509203335 | 70 | 146 | 1.7 | 8.7 | 0.00 | 0.02 | 0.02 | 58 | 1007.1 |
| 20260509202856 | 69 | 146 | 3.5 | 8.7 | 0.00 | 0.02 | 0.02 | 56 | 1007.1 |
| 20260509202320 | 69 | 101 | 2.6 | 8.7 | 0.00 | 0.02 | 0.02 | 54 | 1007.1 |
| 20260509201826 | 69 | 143 | 1.7 | 9.6 | 0.00 | 0.02 | 0.02 | 57 | 1007.1 |
| 20260509201328 | 69 | 84 | 2.6 | 10.4 | 0.00 | 0.02 | 0.02 | 58 | 1007.5 |
| 20260509200855 | 69 | 227 | 2.6 | 10.4 | 0.00 | 0.02 | 0.02 | 58 | 1007.5 |
| 20260509200340 | 70 | 190 | 2.6 | 8.7 | 0.00 | 0.02 | 0.02 | 56 | 1007.5 |
| 20260509195841 | 69 | 215 | 0.9 | 7.8 | 0.00 | 0.02 | 0.02 | 59 | 1007.6 |
| 20260509195326 | 69 | 130 | 0.9 | 7.8 | 0.00 | 0.02 | 0.02 | 59 | 1007.6 |
| 20260509194832 | 69 | 271 | 0.9 | 6.1 | 0.00 | 0.02 | 0.02 | 61 | 1007.6 |
| 20260509194335 | 69 | 130 | 1.7 | 6.1 | 0.00 | 0.02 | 0.02 | 60 | 1007.7 |
| 20260509193818 | 69 | 151 | 0.0 | 6.1 | 0.00 | 0.02 | 0.02 | 61 | 1007.7 |
| 20260509193326 | 69 | 184 | 0.9 | 6.1 | 0.00 | 0.02 | 0.02 | 61 | 1007.7 |
| 20260509192835 | 69 | 256 | 2.6 | 6.1 | 0.00 | 0.02 | 0.02 | 62 | 1008.0 |
| 20260509192319 | 68 | 163 | 1.7 | 7.0 | 0.00 | 0.02 | 0.02 | 65 | 1008.0 |
| 20260509191829 | 67 | 137 | 0.9 | 7.0 | 0.00 | 0.02 | 0.02 | 66 | 1008.0 |
| 20260509191352 | 67 | 238 | 1.7 | 7.8 | 0.00 | 0.02 | 0.02 | 67 | 1008.1 |
| 20260509190836 | 67 | 191 | 0.9 | 7.8 | 0.00 | 0.02 | 0.02 | 66 | 1008.1 |
| 20260509190319 | 67 | 207 | 1.7 | 7.8 | 0.00 | 0.02 | 0.02 | 67 | 1008.1 |
| 20260509185818 | 67 | 149 | 1.7 | 6.1 | 0.00 | 0.02 | 0.02 | 68 | 1008.1 |
| 20260509185326 | 66 | 236 | 1.7 | 9.6 | 0.00 | 0.02 | 0.02 | 65 | 1008.1 |
| 20260509184832 | 67 | 83 | 0.9 | 9.6 | 0.00 | 0.02 | 0.02 | 67 | 1008.1 |
| 20260509184336 | 66 | 147 | 0.9 | 5.2 | 0.00 | 0.02 | 0.02 | 67 | 1008.1 |
| 20260509183819 | 66 | 229 | 2.6 | 6.1 | 0.00 | 0.02 | 0.02 | 67 | 1008.1 |
| 20260509183329 | 66 | 188 | 1.7 | 9.6 | 0.00 | 0.02 | 0.02 | 67 | 1008.1 |
| 20260509182813 | 66 | 155 | 1.7 | 9.6 | 0.00 | 0.02 | 0.02 | 69 | 1008.2 |
| 20260509182345 | 66 | 171 | 1.7 | 6.1 | 0.00 | 0.02 | 0.02 | 69 | 1008.2 |
| 20260509181812 | 66 | 211 | 2.6 | 6.1 | 0.00 | 0.02 | 0.02 | 69 | 1008.2 |
| 20260509181339 | 65 | 167 | 1.7 | 6.1 | 0.00 | 0.02 | 0.02 | 71 | 1008.4 |
| 20260509180825 | 65 | 161 | 1.7 | 8.7 | 0.00 | 0.02 | 0.02 | 72 | 1008.4 |
| 20260509180350 | 65 | 167 | 2.6 | 8.7 | 0.00 | 0.02 | 0.02 | 68 | 1008.4 |
| 20260509175834 | 65 | 253 | 1.7 | 6.1 | 0.00 | 0.02 | 0.02 | 71 | 1008.5 |